BMCB-36 Weather Reports


Display with metric or nautical units.
time (UTC)temp
F
wind
direction
speed
MPH
gust
MPH
rain 1hr
in
rain 24hr
in
rain mn
in
humidity
%
barometer
mb
20260506224049 45 0 0.0 0.0 0.00 0.51 0.00 10 1014.1
20260506223049 45 0 0.0 0.0 0.00 0.53 0.00 10 1014.0
20260506222048 45 0 0.0 0.0 0.00 0.54 0.00 10 1014.0
20260506221045 45 0 0.0 0.0 0.00 0.55 0.00 10 1013.8
20260506220056 45 0 0.0 0.0 0.00 0.56 0.00 10 1013.7
20260506215051 45 0 0.0 0.0 0.00 0.57 0.56 10 1013.7
20260506214050 45 0 0.0 0.0 0.00 0.57 0.56 10 1013.7
20260506213050 46 0 0.0 0.0 0.00 0.58 0.56 10 1013.6
20260506212051 46 0 0.0 0.0 0.00 0.60 0.56 10 1013.5
20260506211049 46 0 0.0 0.0 0.00 0.61 0.56 99 1013.3
20260506204049 46 0 0.0 0.0 0.00 0.64 0.56 97 1013.2
20260506203050 46 0 0.0 0.0 0.00 0.64 0.56 96 1013.2
20260506202051 46 0 0.0 0.0 0.00 0.65 0.56 96 1013.1
20260506201053 46 0 0.0 0.0 0.00 0.66 0.56 95 1012.9
20260506200050 47 0 0.0 0.0 0.00 0.68 0.56 94 1012.9
20260506195049 47 0 0.0 0.0 0.00 0.69 0.56 94 1012.8
20260506194049 47 0 0.0 0.0 0.00 0.69 0.56 94 1012.7
20260506193047 47 0 0.0 0.0 0.00 0.70 0.56 92 1012.6
20260506192048 47 0 0.0 0.0 0.00 0.71 0.56 92 1012.5
20260506190052 48 0 0.0 0.0 0.00 0.72 0.56 92 1012.4
20260506185048 48 0 0.0 0.0 0.00 0.74 0.56 92 1012.3
20260506184049 49 0 0.0 0.0 0.00 0.75 0.56 91 1012.2
20260506183048 49 0 0.0 0.0 0.00 0.76 0.56 89 1012.1
20260506182049 49 0 0.0 0.0 0.00 0.76 0.56 89 1011.9
20260506181047 50 0 0.0 0.0 0.00 0.77 0.56 89 1011.9
20260506180049 50 0 0.0 0.0 0.00 0.78 0.56 88 1011.6
20260506174048 50 0 0.0 0.0 0.00 0.79 0.56 88 1011.4
20260506173046 50 0 0.0 0.0 0.00 0.80 0.56 89 1011.2
20260506172048 50 0 0.0 0.0 0.00 0.80 0.56 88 1011.1
20260506171048 51 0 0.0 0.0 0.00 0.80 0.56 88 1011.0
20260506170045 51 0 0.0 0.0 0.00 0.80 0.56 89 1011.0
20260506163046 51 0 0.0 0.0 0.00 0.81 0.56 87 1010.9
20260506162048 51 0 0.0 0.0 0.00 0.81 0.56 89 1010.9
20260506161045 51 0 0.0 0.0 0.00 0.81 0.56 91 1011.0
20260506160049 51 0 0.0 0.0 0.00 0.81 0.56 91 1010.9
20260506155046 51 0 0.0 0.0 0.00 0.81 0.56 92 1010.8
20260506154052 50 0 0.0 0.0 0.00 0.81 0.56 92 1010.8
20260506153047 50 0 0.0 0.0 0.00 0.81 0.56 93 1010.8
20260506152047 50 0 0.0 0.0 0.00 0.81 0.56 97 1010.8
20260506151049 50 0 0.0 0.0 0.00 0.81 0.56 98 1010.7
20260506150047 49 0 0.0 0.0 0.00 0.81 0.56 98 1010.7
20260506145047 49 0 0.0 0.0 0.00 0.81 0.56 97 1010.6
20260506144045 49 0 0.0 0.0 0.00 0.81 0.56 97 1010.7
20260506143045 50 0 0.0 0.0 0.00 0.81 0.56 96 1010.7
20260506142045 51 0 0.0 0.0 0.00 0.81 0.56 94 1010.6
20260506141045 51 0 0.0 0.0 0.00 0.81 0.56 93 1010.4
20260506135047 51 0 0.0 0.0 0.00 0.81 0.56 93 1010.4
20260506134046 51 0 0.0 0.0 0.00 0.81 0.56 92 1010.4
20260506132046 51 0 0.0 0.0 0.00 0.82 0.56 95 1010.5
20260506130048 50 0 0.0 0.0 0.00 0.82 0.56 98 1010.4
20260506125046 50 0 0.0 0.0 0.00 0.82 0.56 98 1010.5
20260506124046 50 0 0.0 0.0 0.00 0.82 0.56 99 1010.4
20260506121046 49 0 0.0 0.0 0.01 0.82 0.56 10 1010.3
20260506114046 49 0 0.0 0.0 0.02 0.82 0.56 10 1010.1
20260506113047 49 0 0.0 0.0 0.02 0.82 0.56 10 1010.1
20260506112046 49 0 0.0 0.0 0.02 0.81 0.55 10 1010.1
20260506111047 48 0 0.0 0.0 0.02 0.81 0.55 10 1010.1
20260506105046 48 0 0.0 0.0 0.04 0.81 0.55 10 1010.1
20260506103047 48 0 0.0 0.0 0.04 0.80 0.54 10 1010.1
20260506102045 48 0 0.0 0.0 0.05 0.80 0.54 10 1010.0
20260506101045 48 0 0.0 0.0 0.06 0.79 0.53 10 1009.9
20260506100044 47 0 0.0 0.0 0.06 0.79 0.53 10 1009.9
20260506095047 47 0 0.0 0.0 0.06 0.78 0.52 10 1009.8
20260506093046 46 0 0.0 0.0 0.06 0.76 0.50 10 1009.7
20260506092045 46 0 0.0 0.0 0.06 0.76 0.50 10 1009.6
20260506091045 46 0 0.0 0.0 0.06 0.75 0.49 10 1009.6
20260506085045 46 0 0.0 0.0 0.05 0.73 0.47 10 1009.4
20260506084045 46 0 0.0 0.0 0.04 0.72 0.46 10 1009.4
20260506083043 46 0 0.0 0.0 0.03 0.71 0.45 10 1009.3
20260506082045 46 0 0.0 0.0 0.02 0.70 0.44 10 1009.2
20260506081046 46 0 0.0 0.0 0.02 0.70 0.44 10 1009.2
20260506073045 46 0 0.0 0.0 0.02 0.69 0.43 10 1009.0
20260506062044 45 0 0.0 0.0 0.04 0.66 0.40 10 1008.5
20260506061043 45 0 0.0 0.0 0.06 0.66 0.40 10 1008.5
20260506051044 45 0 0.0 0.0 0.04 0.62 0.36 10 1008.5
20260506045042 45 0 0.0 0.0 0.02 0.60 0.34 10 1008.5
20260506044044 45 0 0.0 0.0 0.02 0.59 0.33 10 1008.5
20260506042042 45 0 0.0 0.0 0.03 0.59 0.33 10 1008.4
20260506041043 45 0 0.0 0.0 0.03 0.58 0.32 10 1008.4
20260506035045 46 0 0.0 0.0 0.05 0.58 0.32 10 1008.4
20260506034045 46 0 0.0 0.0 0.05 0.57 0.31 10 1008.4
20260506033044 46 0 0.0 0.0 0.04 0.57 0.31 10 1008.5
20260506032043 46 0 0.0 0.0 0.06 0.57 0.31 10 1008.5
20260506031043 46 0 0.0 0.0 0.06 0.56 0.30 10 1008.5
20260506025043 46 0 0.0 0.0 0.05 0.54 0.28 10 1008.6
20260506024044 46 0 0.0 0.0 0.05 0.54 0.28 10 1008.6
20260506023045 46 0 0.0 0.0 0.04 0.53 0.27 10 1008.7
20260506022043 46 0 0.0 0.0 0.04 0.53 0.27 10 1008.7
20260506021045 46 0 0.0 0.0 0.03 0.51 0.25 10 1008.7
20260506020044 46 0 0.0 0.0 0.03 0.50 0.24 10 1008.8
20260506012043 47 0 0.0 0.0 0.05 0.49 0.23 10 1008.9
20260506011044 47 0 0.0 0.0 0.06 0.49 0.23 10 1008.8
20260506005044 47 0 0.0 0.0 0.06 0.47 0.21 10 1008.9
20260506004043 47 0 0.0 0.0 0.06 0.46 0.20 10 1009.0
20260506003043 47 0 0.0 0.0 0.07 0.46 0.20 10 1009.1
20260506002045 47 0 0.0 0.0 0.08 0.45 0.19 10 1009.2
20260506001044 47 0 0.0 0.0 0.09 0.44 0.18 10 1009.2
20260506000044 47 0 0.0 0.0 0.09 0.43 0.17 10 1009.3
20260505235047 47 0 0.0 0.0 0.10 0.43 0.17 10 1009.4
20260505234045 48 0 0.0 0.0 0.10 0.41 0.15 10 1009.4
20260505231047 48 0 0.0 0.0 0.10 0.37 0.11 10 1009.5
20260505225048 48 0 0.0 0.0 0.09 0.34 0.08 10 1009.7